TimeEST,TemperatureF,Dew PointF,Humidity,Sea Level PressureIn,VisibilityMPH,Wind Direction,Wind SpeedMPH,Gust SpeedMPH,PrecipitationIn,Events,Conditions,WindDirDegrees,DateUTC
12:54 AM,54.0,48.9,83,30.40,10.0,North,13.8,-,N/A,,Partly Cloudy,10,2012-11-18 05:54:00
1:54 AM,55.0,48.9,80,30.41,10.0,North,10.4,-,N/A,,Clear,10,2012-11-18 06:54:00
2:54 AM,54.0,48.9,83,30.40,10.0,North,12.7,-,N/A,,Clear,10,2012-11-18 07:54:00
3:47 AM,55.4,50.0,82,30.39,10.0,NNE,11.5,-,N/A,,Mostly Cloudy,20,2012-11-18 08:47:00
3:54 AM,55.9,50.0,80,30.39,10.0,North,12.7,-,N/A,,Scattered Clouds,10,2012-11-18 08:54:00
4:54 AM,55.9,50.0,80,30.39,10.0,NNE,16.1,-,N/A,,Mostly Cloudy,20,2012-11-18 09:54:00
5:54 AM,55.9,50.0,80,30.40,10.0,NNE,17.3,-,N/A,,Mostly Cloudy,20,2012-11-18 10:54:00
6:54 AM,57.0,50.0,77,30.40,10.0,NNE,16.1,-,N/A,,Clear,30,2012-11-18 11:54:00
7:54 AM,57.9,48.9,72,30.41,10.0,NNE,17.3,23.0,N/A,,Scattered Clouds,20,2012-11-18 12:54:00
8:54 AM,60.1,48.9,67,30.41,10.0,NNE,20.7,28.8,N/A,,Partly Cloudy,30,2012-11-18 13:54:00
9:54 AM,61.0,48.9,64,30.41,10.0,NE,24.2,32.2,0.00,,Partly Cloudy,40,2012-11-18 14:54:00
10:54 AM,61.0,50.0,67,30.40,10.0,NE,23.0,38.0,N/A,,Overcast,40,2012-11-18 15:54:00
11:54 AM,61.0,50.0,67,30.38,10.0,NNE,27.6,34.5,N/A,,Overcast,30,2012-11-18 16:54:00
12:54 PM,59.0,50.0,72,30.36,10.0,NNE,19.6,29.9,0.00,,Overcast,30,2012-11-18 17:54:00
1:54 PM,59.0,50.0,72,30.35,10.0,NNE,24.2,32.2,N/A,,Overcast,30,2012-11-18 18:54:00
2:54 PM,59.0,50.0,72,30.34,10.0,NNE,18.4,27.6,N/A,,Overcast,20,2012-11-18 19:54:00
3:54 PM,59.0,50.0,72,30.33,10.0,NNE,19.6,28.8,N/A,,Overcast,20,2012-11-18 20:54:00
4:54 PM,59.0,50.0,72,30.32,10.0,NNE,21.9,29.9,N/A,,Overcast,20,2012-11-18 21:54:00
5:54 PM,57.9,50.0,75,30.33,10.0,NNE,23.0,28.8,N/A,,Overcast,20,2012-11-18 22:54:00
6:13 PM,59.0,50.0,72,30.34,10.0,NNE,23.0,33.4,N/A,,Overcast,30,2012-11-18 23:13:00
6:54 PM,57.9,50.0,75,30.34,10.0,NNE,21.9,28.8,N/A,,Overcast,20,2012-11-18 23:54:00
7:54 PM,57.9,50.0,75,30.33,10.0,North,17.3,-,N/A,,Overcast,10,2012-11-19 00:54:00
8:33 PM,57.2,50.0,77,30.32,10.0,NNE,18.4,27.6,N/A,,Overcast,20,2012-11-19 01:33:00
8:54 PM,57.9,50.0,75,30.32,10.0,North,20.7,31.1,N/A,,Overcast,10,2012-11-19 01:54:00
9:54 PM,57.9,50.0,75,30.32,10.0,NNE,21.9,28.8,N/A,,Overcast,20,2012-11-19 02:54:00
10:54 PM,57.9,51.1,78,30.30,10.0,NNE,20.7,27.6,0.00,,Overcast,20,2012-11-19 03:54:00
11:10 PM,57.2,51.8,82,30.30,10.0,NNE,17.3,26.5,N/A,,Overcast,20,2012-11-19 04:10:00